Data No.,UTC Date,UTC Time,Latitude,Longitude,Course,Temp(degC),Sal(psu)
5928,2005/2/3,7:19:00,00-00.0800N,151-08.7500E,330,29.626,33.9238
5929,2005/2/3,7:20:00,00-00.2800N,151-08.6300E,329,29.623,33.9234
5930,2005/2/3,7:21:00,00-00.4700N,151-08.5200E,329,29.621,33.922
5931,2005/2/3,7:22:00,00-00.6700N,151-08.4000E,329,29.614,33.9224
5932,2005/2/3,7:23:00,00-00.8600N,151-08.2900E,329,29.615,33.9216
5933,2005/2/3,7:24:00,00-01.0600N,151-08.1800E,329,29.621,33.9209
5934,2005/2/3,7:25:00,00-01.2600N,151-08.0600E,329,29.62,33.9198
5935,2005/2/3,7:26:00,00-01.4700N,151-07.9400E,329,29.622,33.9164
5936,2005/2/3,7:27:00,00-01.6700N,151-07.8200E,330,29.618,33.9118
5937,2005/2/3,7:28:00,00-01.8600N,151-07.7100E,329,29.615,33.9119
5938,2005/2/3,7:29:00,00-02.0600N,151-07.6000E,329,29.611,33.911
5939,2005/2/3,7:30:00,00-02.2600N,151-07.4800E,330,29.611,33.9153
5940,2005/2/3,7:31:00,00-02.4500N,151-07.3700E,329,29.609,33.9173
5941,2005/2/3,7:32:00,00-02.6500N,151-07.2600E,329,29.604,33.9197
5942,2005/2/3,7:33:00,00-02.8400N,151-07.1400E,329,29.599,33.9232
5943,2005/2/3,7:34:00,00-03.0400N,151-07.0300E,329,29.593,33.9232
5944,2005/2/3,7:35:00,00-03.2400N,151-06.9100E,329,29.594,33.9265
5945,2005/2/3,7:36:00,00-03.4300N,151-06.8000E,330,29.599,33.9258
5946,2005/2/3,7:37:00,00-03.6300N,151-06.6900E,329,29.608,33.9277
5947,2005/2/3,7:38:00,00-03.8300N,151-06.5800E,330,29.609,33.929
5948,2005/2/3,7:39:00,00-04.0200N,151-06.4600E,329,29.614,33.9333
5949,2005/2/3,7:40:00,00-04.2200N,151-06.3500E,329,29.614,33.9345
5950,2005/2/3,7:41:00,00-04.4100N,151-06.2400E,329,29.612,33.9373
5951,2005/2/3,7:42:00,00-04.6100N,151-06.1200E,330,29.607,33.9371
5952,2005/2/3,7:43:00,00-04.8100N,151-06.0100E,330,29.606,33.9372
5953,2005/2/3,7:44:00,00-05.0100N,151-05.9000E,329,29.607,33.9375
5954,2005/2/3,7:45:00,00-05.2000N,151-05.7800E,329,29.607,33.9361
5955,2005/2/3,7:46:00,00-05.3900N,151-05.6700E,329,29.608,33.9366
5956,2005/2/3,7:47:00,00-05.5900N,151-05.5500E,329,29.609,33.9388
5957,2005/2/3,7:48:00,00-05.7800N,151-05.4400E,329,29.611,33.9394
5958,2005/2/3,7:49:00,00-05.9800N,151-05.3200E,329,29.611,33.9402
5959,2005/2/3,7:50:00,00-06.1700N,151-05.2100E,329,29.615,33.9424
5960,2005/2/3,7:51:00,00-06.3700N,151-05.1000E,330,29.618,33.9433
5961,2005/2/3,7:52:00,00-06.5600N,151-04.9900E,330,29.627,33.9432
5962,2005/2/3,7:53:00,00-06.7600N,151-04.8800E,329,29.627,33.9452
5963,2005/2/3,7:54:00,00-06.9700N,151-04.7500E,329,29.627,33.9464
5964,2005/2/3,7:55:00,00-07.1600N,151-04.6400E,329,29.626,33.9455
5965,2005/2/3,7:56:00,00-07.3600N,151-04.5200E,329,29.626,33.9451
5966,2005/2/3,7:57:00,00-07.5500N,151-04.4100E,329,29.623,33.944
5967,2005/2/3,7:58:00,00-07.7500N,151-04.3000E,329,29.633,33.9428
5968,2005/2/3,7:59:00,00-07.9400N,151-04.1800E,329,29.633,33.9433
5969,2005/2/3,8:00:00,00-08.1300N,151-04.0700E,328,29.638,33.943
5970,2005/2/3,8:01:00,00-08.3200N,151-03.9500E,329,29.637,33.9421
5971,2005/2/3,8:02:00,00-08.5200N,151-03.8400E,329,29.633,33.9411
5972,2005/2/3,8:03:00,00-08.7100N,151-03.7200E,329,29.631,33.9415
5973,2005/2/3,8:04:00,00-08.9000N,151-03.6100E,329,29.631,33.9392
5974,2005/2/3,8:05:00,00-09.1000N,151-03.5000E,329,29.628,33.9365
5975,2005/2/3,8:06:00,00-09.2900N,151-03.3900E,330,29.63,33.9354
5976,2005/2/3,8:07:00,00-09.4800N,151-03.2800E,329,29.631,33.9336
5977,2005/2/3,8:08:00,00-09.6800N,151-03.1600E,329,29.628,33.9311
5978,2005/2/3,8:09:00,00-09.8700N,151-03.0500E,329,29.629,33.9291
5979,2005/2/3,8:10:00,00-10.0700N,151-02.9300E,329,29.628,33.9283
5980,2005/2/3,8:11:00,00-10.2600N,151-02.8200E,330,29.632,33.9272
5981,2005/2/3,8:12:00,00-10.4500N,151-02.7100E,329,29.636,33.9272
5982,2005/2/3,8:13:00,00-10.6400N,151-02.6000E,330,29.635,33.931
5983,2005/2/3,8:14:00,00-10.8400N,151-02.4900E,330,29.636,33.9318
5984,2005/2/3,8:15:00,00-11.0300N,151-02.3800E,330,29.642,33.935
5985,2005/2/3,8:16:00,00-11.2200N,151-02.2800E,330,29.646,33.9343
5986,2005/2/3,8:17:00,00-11.4100N,151-02.1700E,329,29.647,33.9359
5987,2005/2/3,8:18:00,00-11.6000N,151-02.0600E,330,29.652,33.9348
5988,2005/2/3,8:19:00,00-11.7900N,151-01.9500E,329,29.654,33.9326
5989,2005/2/3,8:20:00,00-11.9900N,151-01.8300E,330,29.659,33.9283
5990,2005/2/3,8:21:00,00-12.1800N,151-01.7300E,329,29.661,33.9244
5991,2005/2/3,8:22:00,00-12.3700N,151-01.6200E,329,29.654,33.9209
5992,2005/2/3,8:23:00,00-12.5700N,151-01.5000E,330,29.659,33.9169
5993,2005/2/3,8:24:00,00-12.7700N,151-01.3900E,329,29.659,33.9162
5994,2005/2/3,8:25:00,00-12.9600N,151-01.2800E,329,29.662,33.9195
5995,2005/2/3,8:26:00,00-13.1500N,151-01.1600E,329,29.668,33.9211
5996,2005/2/3,8:27:00,00-13.3400N,151-01.0600E,329,29.664,33.9202
5997,2005/2/3,8:28:00,00-13.5400N,151-00.9500E,330,29.665,33.9161
5998,2005/2/3,8:29:00,00-13.7300N,151-00.8400E,330,29.665,33.9081
5999,2005/2/3,8:30:00,00-13.9200N,151-00.7300E,329,29.668,33.8983
6000,2005/2/3,8:31:00,00-14.1100N,151-00.6200E,329,29.666,33.8958
6001,2005/2/3,8:32:00,00-14.3000N,151-00.5100E,329,29.662,33.8938
6002,2005/2/3,8:33:00,00-14.4900N,151-00.4000E,330,29.663,33.8952
6003,2005/2/3,8:34:00,00-14.6800N,151-00.2900E,330,29.664,33.8992
6004,2005/2/3,8:35:00,00-14.8700N,151-00.1800E,330,29.663,33.899
6005,2005/2/3,8:36:00,00-15.0700N,151-00.0700E,329,29.665,33.9003
6006,2005/2/3,8:37:00,00-15.2600N,150-59.9600E,329,29.667,33.9039
6007,2005/2/3,8:38:00,00-15.4500N,150-59.8500E,329,29.67,33.9133
6008,2005/2/3,8:39:00,00-15.6400N,150-59.7400E,330,29.675,33.9158
6009,2005/2/3,8:40:00,00-15.8400N,150-59.6300E,330,29.677,33.9204
6010,2005/2/3,8:41:00,00-16.0300N,150-59.5200E,330,29.681,33.9231
6011,2005/2/3,8:42:00,00-16.2300N,150-59.4000E,330,29.686,33.9262
6012,2005/2/3,8:43:00,00-16.4200N,150-59.3000E,330,29.693,33.9297
6013,2005/2/3,8:44:00,00-16.6100N,150-59.1900E,330,29.694,33.9341
6014,2005/2/3,8:45:00,00-16.8000N,150-59.0800E,330,29.692,33.9366
6015,2005/2/3,8:46:00,00-16.9900N,150-58.9600E,328,29.693,33.9396
6016,2005/2/3,8:47:00,00-17.1800N,150-58.8400E,326,29.703,33.9433
6017,2005/2/3,8:48:00,00-17.3700N,150-58.7200E,327,29.7,33.9473
6018,2005/2/3,8:49:00,00-17.5600N,150-58.6000E,327,29.7,33.952
6019,2005/2/3,8:50:00,00-17.7400N,150-58.4800E,327,29.709,33.9524
6020,2005/2/3,8:51:00,00-17.9500N,150-58.3500E,326,29.71,33.9542
6021,2005/2/3,8:52:00,00-18.1300N,150-58.2300E,326,29.715,33.9549
6022,2005/2/3,8:53:00,00-18.3200N,150-58.1100E,327,29.711,33.9546
6023,2005/2/3,8:54:00,00-18.5000N,150-57.9900E,326,29.711,33.9547
6024,2005/2/3,8:55:00,00-18.6900N,150-57.8700E,326,29.715,33.9554
6025,2005/2/3,8:56:00,00-18.8800N,150-57.7400E,326,29.712,33.9581
6026,2005/2/3,8:57:00,00-19.0700N,150-57.6100E,326,29.718,33.9603
6027,2005/2/3,8:58:00,00-19.2500N,150-57.5000E,326,29.713,33.9584
6028,2005/2/3,8:59:00,00-19.4400N,150-57.3700E,326,29.716,33.9588
6029,2005/2/3,9:00:00,00-19.6300N,150-57.2500E,327,29.711,33.9571
6030,2005/2/3,9:01:00,00-19.8100N,150-57.1300E,326,29.711,33.956
6031,2005/2/3,9:02:00,00-20.0000N,150-57.0200E,326,29.711,33.9536
6032,2005/2/3,9:03:00,00-20.1800N,150-56.8900E,326,29.715,33.9522
6033,2005/2/3,9:04:00,00-20.3700N,150-56.7700E,326,29.718,33.9566
6034,2005/2/3,9:05:00,00-20.5600N,150-56.6400E,326,29.72,33.9582
6035,2005/2/3,9:06:00,00-20.7500N,150-56.5200E,326,29.732,33.955
6036,2005/2/3,9:07:00,00-20.9300N,150-56.4000E,326,29.726,33.9502
6037,2005/2/3,9:08:00,00-21.1200N,150-56.2800E,326,29.731,33.9497
6038,2005/2/3,9:09:00,00-21.3100N,150-56.1500E,326,29.745,33.9543
6039,2005/2/3,9:10:00,00-21.4900N,150-56.0300E,325,29.743,33.9514
6040,2005/2/3,9:11:00,00-21.6800N,150-55.9100E,325,29.737,33.9476
6041,2005/2/3,9:12:00,00-21.8700N,150-55.7800E,325,29.731,33.9458
6042,2005/2/3,9:13:00,00-22.0500N,150-55.6500E,325,29.727,33.9428
6043,2005/2/3,9:14:00,00-22.2400N,150-55.5300E,326,29.734,33.9434
6044,2005/2/3,9:15:00,00-22.4300N,150-55.4100E,326,29.735,33.9397
6045,2005/2/3,9:16:00,00-22.6200N,150-55.2800E,326,29.727,33.9334
6046,2005/2/3,9:17:00,00-22.8100N,150-55.1600E,326,29.73,33.9321
6047,2005/2/3,9:18:00,00-23.0100N,150-55.0300E,326,29.726,33.9354
6048,2005/2/3,9:19:00,00-23.2000N,150-54.9100E,326,29.732,33.9389
6049,2005/2/3,9:20:00,00-23.3900N,150-54.7800E,326,29.732,33.942
6050,2005/2/3,9:21:00,00-23.5700N,150-54.6600E,326,29.744,33.9431
6051,2005/2/3,9:22:00,00-23.7600N,150-54.5300E,326,29.754,33.9452
6052,2005/2/3,9:23:00,00-23.9500N,150-54.4100E,326,29.747,33.9499
6053,2005/2/3,9:24:00,00-24.1400N,150-54.2800E,325,29.738,33.9513
6054,2005/2/3,9:25:00,00-24.3200N,150-54.1600E,325,29.745,33.9497
6055,2005/2/3,9:26:00,00-24.5000N,150-54.0400E,325,29.752,33.9456
6056,2005/2/3,9:27:00,00-24.6900N,150-53.9100E,325,29.753,33.9432
6057,2005/2/3,9:28:00,00-24.8700N,150-53.7900E,326,29.75,33.9411
6058,2005/2/3,9:29:00,00-25.0600N,150-53.6700E,326,29.741,33.9409
6059,2005/2/3,9:30:00,00-25.2500N,150-53.5500E,326,29.747,33.9436
6060,2005/2/3,9:31:00,00-25.4300N,150-53.4300E,326,29.749,33.9459
6061,2005/2/3,9:32:00,00-25.6200N,150-53.3000E,326,29.74,33.9478
6062,2005/2/3,9:33:00,00-25.8100N,150-53.1800E,325,29.735,33.9459
6063,2005/2/3,9:34:00,00-25.9900N,150-53.0500E,326,29.709,33.9438
6064,2005/2/3,9:35:00,00-26.1800N,150-52.9300E,325,29.717,33.9395
6065,2005/2/3,9:36:00,00-26.3600N,150-52.8100E,326,29.733,33.936
6066,2005/2/3,9:37:00,00-26.5500N,150-52.6900E,326,29.731,33.9366
6067,2005/2/3,9:38:00,00-26.7400N,150-52.5600E,326,29.715,33.9379
6068,2005/2/3,9:39:00,00-26.9200N,150-52.4400E,326,29.723,33.9349
6069,2005/2/3,9:40:00,00-27.1100N,150-52.3200E,325,29.713,33.9274
6070,2005/2/3,9:41:00,00-27.2900N,150-52.2000E,325,29.7,33.9274
6071,2005/2/3,9:42:00,00-27.4700N,150-52.0800E,325,29.713,33.9117
6072,2005/2/3,9:43:00,00-27.6600N,150-51.9500E,326,29.723,33.924
6073,2005/2/3,9:44:00,00-27.8400N,150-51.8300E,326,29.729,33.9379
6074,2005/2/3,9:45:00,00-28.0300N,150-51.7100E,326,29.734,33.9376
6075,2005/2/3,9:46:00,00-28.2100N,150-51.5900E,325,29.744,33.9344
6076,2005/2/3,9:47:00,00-28.4100N,150-51.4600E,325,29.756,33.9144
6077,2005/2/3,9:48:00,00-28.5900N,150-51.3300E,325,29.772,33.8903
6078,2005/2/3,9:49:00,00-28.7700N,150-51.2100E,325,29.778,33.9156
6079,2005/2/3,9:50:00,00-28.9600N,150-51.0800E,325,29.772,33.9326
6080,2005/2/3,9:51:00,00-29.1400N,150-50.9600E,325,29.776,33.9361
6081,2005/2/3,9:52:00,00-29.3200N,150-50.8400E,325,29.779,33.9347
6082,2005/2/3,9:53:00,00-29.5100N,150-50.7100E,325,29.782,33.9339
6083,2005/2/3,9:54:00,00-29.6900N,150-50.5900E,325,29.793,33.9104
6084,2005/2/3,9:55:00,00-29.8800N,150-50.4700E,325,29.795,33.8982
6085,2005/2/3,9:56:00,00-30.0600N,150-50.3400E,325,29.774,33.9085
6086,2005/2/3,9:57:00,00-30.2400N,150-50.2200E,325,29.775,33.904
6087,2005/2/3,9:58:00,00-30.4200N,150-50.0900E,324,29.772,33.9021
6088,2005/2/3,9:59:00,00-30.6100N,150-49.9600E,325,29.776,33.8669
6089,2005/2/3,10:00:00,00-30.7900N,150-49.8400E,324,29.766,33.8755
6090,2005/2/3,10:01:00,00-30.9700N,150-49.7100E,325,29.755,33.8845
6091,2005/2/3,10:02:00,00-31.1500N,150-49.5900E,325,29.747,33.8682
6092,2005/2/3,10:03:00,00-31.3400N,150-49.4600E,325,29.745,33.8577
6093,2005/2/3,10:04:00,00-31.5200N,150-49.3400E,325,29.738,33.8566
6094,2005/2/3,10:05:00,00-31.7000N,150-49.2100E,326,29.744,33.8571
6095,2005/2/3,10:06:00,00-31.8900N,150-49.0900E,326,29.737,33.8801
6096,2005/2/3,10:07:00,00-32.0700N,150-48.9700E,325,29.728,33.9078
6097,2005/2/3,10:08:00,00-32.2500N,150-48.8400E,325,29.735,33.8809
6098,2005/2/3,10:09:00,00-32.4400N,150-48.7200E,324,29.76,33.858
6099,2005/2/3,10:10:00,00-32.6200N,150-48.5900E,325,29.785,33.8776
6100,2005/2/3,10:11:00,00-32.8100N,150-48.4600E,325,29.801,33.9169
6101,2005/2/3,10:12:00,00-32.9900N,150-48.3400E,325,29.8,33.9267
6102,2005/2/3,10:13:00,00-33.1800N,150-48.2100E,325,29.789,33.9326
6103,2005/2/3,10:14:00,00-33.3600N,150-48.0900E,325,29.787,33.9344
6104,2005/2/3,10:15:00,00-33.5400N,150-47.9600E,325,29.795,33.9376
6105,2005/2/3,10:16:00,00-33.7400N,150-47.8300E,325,29.774,33.9366
6106,2005/2/3,10:17:00,00-33.9300N,150-47.7000E,326,29.776,33.9255
6107,2005/2/3,10:18:00,00-34.1100N,150-47.5800E,325,29.78,33.9236
6108,2005/2/3,10:19:00,00-34.3000N,150-47.4500E,326,29.774,33.9224
6109,2005/2/3,10:20:00,00-34.4800N,150-47.3300E,325,29.757,33.9236
6110,2005/2/3,10:21:00,00-34.6700N,150-47.2100E,325,29.755,33.9234
6111,2005/2/3,10:22:00,00-34.8600N,150-47.0800E,326,29.773,33.929
6112,2005/2/3,10:23:00,00-35.0400N,150-46.9600E,325,29.772,33.9332
6113,2005/2/3,10:24:00,00-35.2300N,150-46.8300E,326,29.772,33.9355
6114,2005/2/3,10:25:00,00-35.4200N,150-46.7100E,326,29.776,33.9355
6115,2005/2/3,10:26:00,00-35.6000N,150-46.5900E,326,29.783,33.9369
6116,2005/2/3,10:27:00,00-35.7900N,150-46.4600E,326,29.789,33.9343
6117,2005/2/3,10:28:00,00-35.9800N,150-46.3400E,326,29.791,33.9363
6118,2005/2/3,10:29:00,00-36.1600N,150-46.2200E,326,29.794,33.9337
6119,2005/2/3,10:30:00,00-36.3500N,150-46.0900E,325,29.794,33.9366
6120,2005/2/3,10:31:00,00-36.5400N,150-45.9600E,325,29.798,33.9384
6121,2005/2/3,10:32:00,00-36.7300N,150-45.8400E,326,29.808,33.9367
6122,2005/2/3,10:33:00,00-36.9100N,150-45.7100E,326,29.811,33.9354
6123,2005/2/3,10:34:00,00-37.1000N,150-45.5900E,325,29.816,33.9337
6124,2005/2/3,10:35:00,00-37.2900N,150-45.4600E,325,29.808,33.9337
6125,2005/2/3,10:36:00,00-37.4700N,150-45.3400E,325,29.804,33.9365
6126,2005/2/3,10:37:00,00-37.6600N,150-45.2100E,325,29.797,33.9404
6127,2005/2/3,10:38:00,00-37.8500N,150-45.0800E,325,29.791,33.9387
6128,2005/2/3,10:39:00,00-38.0400N,150-44.9600E,326,29.791,33.9363
6129,2005/2/3,10:40:00,00-38.2200N,150-44.8300E,326,29.797,33.9317
6130,2005/2/3,10:41:00,00-38.4100N,150-44.7100E,326,29.795,33.9354
6131,2005/2/3,10:42:00,00-38.5900N,150-44.5800E,325,29.797,33.9314
6132,2005/2/3,10:43:00,00-38.7800N,150-44.4600E,325,29.796,33.9274
6133,2005/2/3,10:44:00,00-38.9700N,150-44.3300E,325,29.799,33.9287
6134,2005/2/3,10:45:00,00-39.1700N,150-44.1900E,325,29.793,33.9323
6135,2005/2/3,10:46:00,00-39.3600N,150-44.0700E,326,29.795,33.9369
6136,2005/2/3,10:47:00,00-39.5400N,150-43.9400E,325,29.794,33.9384
6137,2005/2/3,10:48:00,00-39.7300N,150-43.8100E,325,29.8,33.9407
6138,2005/2/3,10:49:00,00-39.9200N,150-43.6900E,325,29.799,33.94
6139,2005/2/3,10:50:00,00-40.1000N,150-43.5600E,325,29.797,33.9413
6140,2005/2/3,10:51:00,00-40.2900N,150-43.4300E,326,29.794,33.9388
6141,2005/2/3,10:52:00,00-40.4800N,150-43.3100E,325,29.789,33.9412
6142,2005/2/3,10:53:00,00-40.6700N,150-43.1800E,325,29.791,33.9431
6143,2005/2/3,10:54:00,00-40.8600N,150-43.0500E,325,29.798,33.9423
6144,2005/2/3,10:55:00,00-41.0400N,150-42.9300E,325,29.805,33.942
6145,2005/2/3,10:56:00,00-41.2300N,150-42.8000E,325,29.805,33.9415
6146,2005/2/3,10:57:00,00-41.4200N,150-42.6700E,325,29.796,33.9428
6147,2005/2/3,10:58:00,00-41.6100N,150-42.5400E,325,29.794,33.9461
6148,2005/2/3,10:59:00,00-41.8000N,150-42.4100E,325,29.801,33.9487
6149,2005/2/3,11:00:00,00-41.9900N,150-42.2800E,325,29.811,33.9496
6150,2005/2/3,11:01:00,00-42.1800N,150-42.1600E,325,29.82,33.952
6151,2005/2/3,11:02:00,00-42.3600N,150-42.0300E,325,29.818,33.9526
6152,2005/2/3,11:03:00,00-42.5500N,150-41.9000E,325,29.818,33.9544
6153,2005/2/3,11:04:00,00-42.7400N,150-41.7700E,325,29.826,33.9574
6154,2005/2/3,11:05:00,00-42.9300N,150-41.6500E,325,29.831,33.9581
6155,2005/2/3,11:06:00,00-43.1200N,150-41.5200E,325,29.826,33.9593
6156,2005/2/3,11:07:00,00-43.3100N,150-41.3900E,326,29.833,33.9583
6157,2005/2/3,11:08:00,00-43.4900N,150-41.2600E,325,29.829,33.9598
6158,2005/2/3,11:09:00,00-43.6800N,150-41.1300E,325,29.829,33.9599
6159,2005/2/3,11:10:00,00-43.8700N,150-41.0100E,325,29.833,33.957
6160,2005/2/3,11:11:00,00-44.0600N,150-40.8800E,325,29.838,33.9607
6161,2005/2/3,11:12:00,00-44.2500N,150-40.7500E,325,29.831,33.9625
6162,2005/2/3,11:13:00,00-44.4500N,150-40.6100E,326,29.841,33.9614
6163,2005/2/3,11:14:00,00-44.6400N,150-40.4800E,325,29.849,33.963
6164,2005/2/3,11:15:00,00-44.8300N,150-40.3600E,325,29.854,33.9576
6165,2005/2/3,11:16:00,00-45.0100N,150-40.2300E,326,29.847,33.9568
6166,2005/2/3,11:17:00,00-45.2100N,150-40.1000E,326,29.844,33.9597
6167,2005/2/3,11:18:00,00-45.3900N,150-39.9800E,326,29.832,33.96
6168,2005/2/3,11:19:00,00-45.5800N,150-39.8600E,326,29.841,33.9598
6169,2005/2/3,11:20:00,00-45.7700N,150-39.7300E,326,29.853,33.9569
6170,2005/2/3,11:21:00,00-45.9600N,150-39.6000E,326,29.843,33.9555
6171,2005/2/3,11:22:00,00-46.1500N,150-39.4700E,325,29.861,33.9566
6172,2005/2/3,11:23:00,00-46.3400N,150-39.3500E,325,29.86,33.9556
6173,2005/2/3,11:24:00,00-46.5200N,150-39.2200E,326,29.878,33.9543
6174,2005/2/3,11:25:00,00-46.7100N,150-39.0900E,325,29.874,33.9526
6175,2005/2/3,11:26:00,00-46.9000N,150-38.9700E,326,29.87,33.9527
6176,2005/2/3,11:27:00,00-47.0900N,150-38.8400E,326,29.839,33.9493
6177,2005/2/3,11:28:00,00-47.2800N,150-38.7100E,325,29.828,33.947
6178,2005/2/3,11:29:00,00-47.4700N,150-38.5900E,326,29.823,33.9503
6179,2005/2/3,11:30:00,00-47.6500N,150-38.4700E,326,29.858,33.9499
6180,2005/2/3,11:31:00,00-47.8400N,150-38.3400E,326,29.903,33.9464
6181,2005/2/3,11:32:00,00-48.0300N,150-38.2200E,325,29.903,33.9412
6182,2005/2/3,11:33:00,00-48.2100N,150-38.0900E,325,29.891,33.9481
6183,2005/2/3,11:34:00,00-48.4000N,150-37.9600E,325,29.87,33.9519
6184,2005/2/3,11:35:00,00-48.5900N,150-37.8400E,326,29.854,33.9483
6185,2005/2/3,11:36:00,00-48.7700N,150-37.7200E,326,29.855,33.9439
6186,2005/2/3,11:37:00,00-48.9600N,150-37.5900E,326,29.875,33.9403
6187,2005/2/3,11:38:00,00-49.1500N,150-37.4700E,325,29.875,33.9414
6188,2005/2/3,11:39:00,00-49.3400N,150-37.3400E,326,29.891,33.9506
6189,2005/2/3,11:40:00,00-49.5200N,150-37.2200E,325,29.894,33.953
6190,2005/2/3,11:41:00,00-49.7200N,150-37.0900E,326,29.782,33.9501
6191,2005/2/3,11:42:00,00-49.9100N,150-36.9600E,326,29.812,33.9281
6192,2005/2/3,11:43:00,00-50.1000N,150-36.8400E,326,29.831,33.875
6193,2005/2/3,11:44:00,00-50.2800N,150-36.7100E,326,29.832,33.8921
6194,2005/2/3,11:45:00,00-50.4700N,150-36.5900E,326,29.845,33.8944
6195,2005/2/3,11:46:00,00-50.6600N,150-36.4700E,326,29.853,33.8858
6196,2005/2/3,11:47:00,00-50.8500N,150-36.3400E,326,29.856,33.8891
6197,2005/2/3,11:48:00,00-51.0300N,150-36.2200E,326,29.854,33.8995
6198,2005/2/3,11:49:00,00-51.2200N,150-36.1000E,326,29.849,33.9146
6199,2005/2/3,11:50:00,00-51.4100N,150-35.9800E,326,29.837,33.913
6200,2005/2/3,11:51:00,00-51.6000N,150-35.8500E,327,29.834,33.9087
6201,2005/2/3,11:52:00,00-51.7800N,150-35.7300E,326,29.829,33.9103
6202,2005/2/3,11:53:00,00-51.9700N,150-35.6100E,326,29.884,33.9235
6203,2005/2/3,11:54:00,00-52.1500N,150-35.4800E,326,29.903,33.9351
6204,2005/2/3,11:55:00,00-52.3400N,150-35.3600E,326,29.891,33.9489
6205,2005/2/3,11:56:00,00-52.5200N,150-35.2400E,326,29.857,33.9513
6206,2005/2/3,11:57:00,00-52.7100N,150-35.1100E,326,29.85,33.9512
6207,2005/2/3,11:58:00,00-52.9000N,150-34.9900E,325,29.849,33.9507
6208,2005/2/3,11:59:00,00-53.0800N,150-34.8600E,326,29.853,33.9537
6209,2005/2/3,12:00:00,00-53.2600N,150-34.7400E,326,29.853,33.9488
6210,2005/2/3,12:01:00,00-53.4500N,150-34.6200E,326,29.851,33.9409
6211,2005/2/3,12:02:00,00-53.6400N,150-34.4900E,326,29.816,33.9345
6212,2005/2/3,12:03:00,00-53.8200N,150-34.3700E,325,29.808,33.9324
6213,2005/2/3,12:04:00,00-54.0000N,150-34.2500E,325,29.807,33.9158
6214,2005/2/3,12:05:00,00-54.1900N,150-34.1200E,325,29.853,33.9035
6215,2005/2/3,12:06:00,00-54.3800N,150-34.0000E,325,29.872,33.912
6216,2005/2/3,12:07:00,00-54.5600N,150-33.8700E,325,29.885,33.9415
6217,2005/2/3,12:08:00,00-54.7500N,150-33.7500E,325,29.88,33.9506
6218,2005/2/3,12:09:00,00-54.9300N,150-33.6200E,325,29.824,33.9552
6219,2005/2/3,12:10:00,00-55.1300N,150-33.4900E,326,29.802,33.9502
6220,2005/2/3,12:11:00,00-55.3200N,150-33.3600E,326,29.8,33.9384
6221,2005/2/3,12:12:00,00-55.5000N,150-33.2400E,325,29.81,33.9419
6222,2005/2/3,12:13:00,00-55.6900N,150-33.1100E,325,29.848,33.9345
6223,2005/2/3,12:14:00,00-55.8700N,150-32.9800E,325,29.854,33.9355
6224,2005/2/3,12:15:00,00-56.0600N,150-32.8600E,325,29.854,33.9479
6225,2005/2/3,12:16:00,00-56.2400N,150-32.7300E,325,29.856,33.9493
6226,2005/2/3,12:17:00,00-56.4300N,150-32.6100E,325,29.859,33.9485
6227,2005/2/3,12:18:00,00-56.6200N,150-32.4800E,326,29.86,33.949
6228,2005/2/3,12:19:00,00-56.8000N,150-32.3600E,325,29.852,33.9494
6229,2005/2/3,12:20:00,00-56.9800N,150-32.2400E,325,29.838,33.9515
6230,2005/2/3,12:21:00,00-57.1700N,150-32.1100E,325,29.858,33.9419
6231,2005/2/3,12:22:00,00-57.3600N,150-31.9800E,325,29.854,33.9343
6232,2005/2/3,12:23:00,00-57.5400N,150-31.8600E,325,29.858,33.9482
6233,2005/2/3,12:24:00,00-57.7200N,150-31.7300E,325,29.858,33.9524
6234,2005/2/3,12:25:00,00-57.9100N,150-31.6000E,326,29.805,33.9551
6235,2005/2/3,12:26:00,00-58.0900N,150-31.4700E,325,29.793,33.9438
6236,2005/2/3,12:27:00,00-58.2800N,150-31.3500E,325,29.775,33.9352
6237,2005/2/3,12:28:00,00-58.4700N,150-31.2200E,326,29.771,33.9395
6238,2005/2/3,12:29:00,00-58.6500N,150-31.1000E,325,29.76,33.9414
6239,2005/2/3,12:30:00,00-58.8400N,150-30.9700E,325,29.748,33.9446
6240,2005/2/3,12:31:00,00-59.0300N,150-30.8500E,326,29.744,33.9479
6241,2005/2/3,12:32:00,00-59.2100N,150-30.7200E,325,29.744,33.9506
6242,2005/2/3,12:33:00,00-59.4000N,150-30.5900E,325,29.749,33.9498
6243,2005/2/3,12:34:00,00-59.5900N,150-30.4700E,325,29.757,33.9471
6244,2005/2/3,12:35:00,00-59.7700N,150-30.3400E,325,29.757,33.9411
6245,2005/2/3,12:36:00,00-59.9600N,150-30.2100E,325,29.766,33.9384
6246,2005/2/3,12:37:00,01-00.1500N,150-30.0800E,325,29.768,33.9406
6247,2005/2/3,12:38:00,01-00.3400N,150-29.9600E,325,29.778,33.9405
6248,2005/2/3,12:39:00,01-00.5400N,150-29.8200E,325,29.774,33.9415
6249,2005/2/3,12:40:00,01-00.7200N,150-29.7000E,325,29.784,33.9389
6250,2005/2/3,12:41:00,01-00.9100N,150-29.5700E,325,29.788,33.9372
6251,2005/2/3,12:42:00,01-01.1000N,150-29.4400E,326,29.808,33.9322
6252,2005/2/3,12:43:00,01-01.2900N,150-29.3200E,325,29.814,33.9201
6253,2005/2/3,12:44:00,01-01.4800N,150-29.1900E,326,29.806,33.9229
6254,2005/2/3,12:45:00,01-01.6600N,150-29.0600E,325,29.792,33.9225
6255,2005/2/3,12:46:00,01-01.8500N,150-28.9400E,326,29.773,33.9237
6256,2005/2/3,12:47:00,01-02.0400N,150-28.8100E,326,29.792,33.9242
6257,2005/2/3,12:48:00,01-02.2300N,150-28.6900E,326,29.78,33.9168
6258,2005/2/3,12:49:00,01-02.4200N,150-28.5600E,326,29.782,33.917
6259,2005/2/3,12:50:00,01-02.6100N,150-28.4400E,326,29.775,33.9183
6260,2005/2/3,12:51:00,01-02.8000N,150-28.3100E,326,29.77,33.9171
6261,2005/2/3,12:52:00,01-02.9800N,150-28.1800E,325,29.754,33.922
6262,2005/2/3,12:53:00,01-03.1700N,150-28.0600E,326,29.75,33.929
6263,2005/2/3,12:54:00,01-03.3600N,150-27.9300E,326,29.76,33.9349
6264,2005/2/3,12:55:00,01-03.5500N,150-27.8100E,327,29.762,33.9352
6265,2005/2/3,12:56:00,01-03.7400N,150-27.6800E,326,29.77,33.9331
6266,2005/2/3,12:57:00,01-03.9300N,150-27.5600E,326,29.784,33.9291
6267,2005/2/3,12:58:00,01-04.1200N,150-27.4400E,326,29.79,33.928
6268,2005/2/3,12:59:00,01-04.3100N,150-27.3100E,325,29.797,33.926
6269,2005/2/3,13:00:00,01-04.5000N,150-27.1900E,327,29.798,33.9296
6270,2005/2/3,13:01:00,01-04.6900N,150-27.0600E,326,29.801,33.9314
6271,2005/2/3,13:02:00,01-04.8800N,150-26.9400E,326,29.788,33.9295
6272,2005/2/3,13:03:00,01-05.0700N,150-26.8100E,325,29.788,33.9321
6273,2005/2/3,13:04:00,01-05.2600N,150-26.6800E,327,29.786,33.9226
6274,2005/2/3,13:05:00,01-05.4500N,150-26.5600E,326,29.848,33.916
6275,2005/2/3,13:06:00,01-05.6300N,150-26.4400E,326,29.896,33.9002
6276,2005/2/3,13:07:00,01-05.8200N,150-26.3100E,327,29.879,33.9207
6277,2005/2/3,13:08:00,01-06.0300N,150-26.1800E,327,29.91,33.9499
6278,2005/2/3,13:09:00,01-06.2200N,150-26.0600E,326,29.93,33.9455
6279,2005/2/3,13:10:00,01-06.4100N,150-25.9400E,326,29.94,33.9415
6280,2005/2/3,13:11:00,01-06.6000N,150-25.8100E,326,29.919,33.9482
6281,2005/2/3,13:12:00,01-06.7900N,150-25.6900E,326,29.936,33.9304
6282,2005/2/3,13:13:00,01-06.9800N,150-25.5600E,326,29.944,33.9021